Aérodrome :
LOGIN :

S'inscrire | Disclaimer

   EN    FR    IT 

 










Légende :    VFR   VFR Marginal   IFR   IFR Intensif   IFR Très Intensif
Visi : 
Plafond : 
>= 8 km
>= 3000ft
5 à 8 km
1000 à 3000 ft
1500m à 5 km
500 à 1000 ft
800 à 1500m
200 à 500 ft
< 800m
< 200 ft
Symboles :   Orages  Brouillard  Fortes neiges  Fortes précipitations  Vent > 20 kt
SIGMETs :   Divers  Orages  Givrage  Turbulence  Onde Orograph.  Cendres Volcan.







- Altitude de l'aérodrome : 277 ft
- Code IATA : JER
- Voir les cartes d'approche


EGJJ - Jersey

DERNIER METAR :
  • 201350Z 20016G27KT 9999 FEW031 21/16 Q1012

METARs EXPIRÉS :
  • 201320Z 19015G25KT 9999 FEW031 21/16 Q1013
  • 201250Z 20015KT 9999 BKN031 21/16 Q1013
  • 201220Z 19014KT 9999 BKN030 21/16 Q1013
  • 201150Z 19014KT 9999 BKN032 21/16 Q1014
  • 201120Z 20015KT 9999 FEW023 BKN031 20/16 Q1014

TAF TAF EGJJ
Valide du 20 à 12h jusqu'au 20 à 21h UTC


201105Z 2012/2021 22014KT 9999 FEW014 SCT024
BECMG 2019/2021 22024KT
ATIS : +44 1534 498 073
Pas de NOTAMs connus pour ce terrain.



MET'MAP, la Météo Aéronautique d'un coup d'oeil ! - Copyright ORBIFLY Décembre 2007 - Disclaimer

ORBIFLY MET'MAP TEAM :

Programmation & Développement : Alexandra Zaïnal
Conception & Développement : Baudouin d'Aumeries
Co-Programmation & Développement : Marc-Olivier Méhu
Soutien technique & logistique : Manuel Goepfert

Contact : metmap@orbifly.com




SOURCES & CREDITS :

   NOAA